Regional Weather Roundup
Issued by NWS

Home | Current Version | Previous Version | Graphics & Text | Print | Product List | Glossary On
Versions: 1 2 3 4 5 6 7 8 9 10 11 12 13 14 15 16 17 18 19 20 21 22 23 24 25 26 27 28 29 30 31 32 33 34 35 36 37 38 39 40 41 42 43 44 45 46 47 48 49 50
000
ASUS43 KLSX 011159
RWRMO

WEATHER SUMMARY FOR MISSOURI
NATIONAL WEATHER SERVICE SPRINGFIELD MO
700 AM CDT SAT NOV 01 2014

NOTE: "FAIR" INDICATES FEW OR NO CLOUDS BELOW 12,000 FEET WITH NO
       SIGNIFICANT WEATHER AND/OR OBSTRUCTIONS TO VISIBILITY.
       CURRENT SKY AND/OR WEATHER CONDITIONS ARE NOT AVAILABLE FOR
       CHILLICOTHE AND FARMINGTON.

MOZ001>031-035>038-043-044-053-054-011300-
...NORTHERN AND WESTERN MISSOURI...

CITY           SKY/WX    TMP DP  RH WIND       PRES   REMARKS
KANSAS CTY INT CLEAR     30  20  66 E8        30.46S WCI  22
6HR MIN TEMP:  28; 6HR MAX TEMP:  32;

KANSAS C DTWN  CLEAR     30  21  69 E3        30.48R
6HR MIN TEMP:  29; 6HR MAX TEMP:  35;

LEE`S SUMMIT   CLEAR     27  19  72 E6        30.47S WCI  20
6HR MIN TEMP:  26; 6HR MAX TEMP:  33;

ST JOSEPH      CLEAR     24  19  81 S3        30.47S
6HR MIN TEMP:  20; 6HR MAX TEMP:  29;

CHILLICOTHE      N/A     24  20  84 CALM      30.50S
6HR MIN TEMP:  24; 6HR MAX TEMP:  30;

KIRKSVILLE     CLEAR     21  19  92 CALM      30.48R
6HR MIN TEMP:  21; 6HR MAX TEMP:  28;


$$
MOZ066>068-077>081-088>096-101>105-011300-
...SOUTHWEST MISSOURI...

CITY           SKY/WX    TMP DP  RH WIND       PRES   REMARKS
SPRINGFIELD    PTCLDY    25  18  74 CALM      30.44R
6HR MIN TEMP:  22; 6HR MAX TEMP:  31;

JOPLIN         CLEAR     26  22  84 CALM      30.46S
6HR MIN TEMP:  24; 6HR MAX TEMP:  30;


$$
MOZ032>034-039>042-045>050-055>058-069>072-011300-
...CENTRAL MISSOURI...

CITY           SKY/WX    TMP DP  RH WIND       PRES   REMARKS
COLUMBIA       CLEAR     24  20  84 NW5       30.46S WCI  18
6HR MIN TEMP:  24; 6HR MAX TEMP:  29;

JEFFERSON CITY CLEAR     28  22  78 N6        30.48R WCI  22
6HR MIN TEMP:  27; 6HR MAX TEMP:  34;

ROLLA          CLEAR     25  19  78 CALM      30.42S
6HR MIN TEMP:  25; 6HR MAX TEMP:  29;

SEDALIA        PTCLDY    28  20  71 CALM      30.49R
6HR MIN TEMP:  27; 6HR MAX TEMP:  31;

WARRENSBURG    CLEAR     25  21  86 CALM      30.48S
OSAGE BEACH    CLEAR     27  19  74 CALM      30.46R

$$
MOZ051-052-059>065-011300-
...EAST CENTRAL MISSOURI...

CITY           SKY/WX    TMP DP  RH WIND       PRES   REMARKS
ST LOUIS INTL  CLEAR     31  20  63 N7        30.44R WCI  24
6HR MIN TEMP:  31; 6HR MAX TEMP:  36;

SPIRIT OF STL  CLEAR     26  21  81 CALM      30.45R
6HR MIN TEMP:  26; 6HR MAX TEMP:  35; 6HR PCP: TRACE;

ST CHARLES     CLEAR     31  20  63 N12       30.44S WCI  22
6HR MIN TEMP:  31; 6HR MAX TEMP:  35;


$$
MOZ072>076-082>087-097>100-106>115-011300-
...SOUTH CENTRAL AND SOUTHEAST MISSOURI...

CITY           SKY/WX    TMP DP  RH WIND       PRES   REMARKS
CAPE GIRARDEAU CLEAR     33  22  63 N9        30.40R WCI  25
6HR MIN TEMP:  32; 6HR MAX TEMP:  37;

FARMINGTON     CLEAR     28  19  69 NW7       30.41S WCI  21
6HR MIN TEMP:  28; 6HR MAX TEMP:  32;

POPLAR BLUFF   CLEAR     30  21  69 NW7       30.41R WCI  23
6HR MIN TEMP:  30; 6HR MAX TEMP:  35;

WEST PLAINS    CLEAR     27  19  72 N5        30.43R WCI  22
6HR MIN TEMP:  27; 6HR MAX TEMP:  31;


$$



USA.gov is the U.S. government's official web portal to all federal, state and local government web resources and services.